Regional Weather Roundup
Issued by NWS

Home | Current Version | Previous Version | Graphics & Text | Print | Product List | Glossary On
Versions: 1 2 3 4 5 6 7 8 9 10 11 12 13 14 15 16 17 18 19 20 21 22 23 24 25 26 27 28 29 30 31 32 33 34 35 36 37 38 39 40 41 42 43 44 45 46 47 48 49 50
000
ASUS43 KBIS 291420
RWRND

NORTH DAKOTA REGIONAL WEATHER ROUNDUP
NATIONAL WEATHER SERVICE BISMARCK ND
900 AM CDT TUE JUL 29 2014

NOTE: "FAIR" INDICATES FEW OR NO CLOUDS BELOW 12,000 FEET WITH NO
SIGNIFICANT WEATHER AND/OR OBSTRUCTIONS TO VISIBILITY.


NDZ001>003-009>011-017-291500-
NORTHWEST NORTH DAKOTA

CITY           SKY/WX    TMP DP  RH WIND       PRES   REMARKS
WILLISTON      SUNNY     65  55  70 CALM      30.21S
MINOT          SUNNY     66  56  70 SW3       30.21S
MINOT AFB      SUNNY     66  62  87 SW2       30.21S
$$

NDZ018>021-031>035-040>046-291500-
SOUTHWEST NORTH DAKOTA

CITY           SKY/WX    TMP DP  RH WIND       PRES   REMARKS
BISMARCK       SUNNY     60  53  77 CALM      30.25R
DICKINSON      SUNNY     63  54  72 S6        30.23R
GARRISON         N/A     66  60  81 CALM      30.22S
HETTINGER ARPT SUNNY     63  54  72 SW3       30.26S
$$

NDZ004>008-012>016-024-026-027-054-291500-
NORTHEAST NORTH DAKOTA

CITY           SKY/WX    TMP DP  RH WIND       PRES   REMARKS
GRAND FORKS    MOSUNNY   64  57  78 NW5       30.18S
GRND FRKS AFB  SUNNY     65  59  78 NW8       30.19S
DEVILS LAKE    SUNNY     64  55  72 NW7       30.20S
$$

NDZ022-023-025-028>030-036>039-047>053-291500-
SOUTHEAST NORTH DAKOTA

CITY           SKY/WX    TMP DP  RH WIND       PRES   REMARKS
FARGO          SUNNY     65  55  70 CALM      30.19S
JAMESTOWN      SUNNY     65  55  70 VRB6      30.21S
$$



USA.gov is the U.S. government's official web portal to all federal, state and local government web resources and services.